DAL1515 KLAX-KLAS

Flight info

Callsign DAL1515
Flight time 0h 43m
Altitude 27000
Route ORCKA5 MISEN RNDRZ4
Aircraft B739/M-SDE2E3FGHIRWXY/LB1

Departure

Time 2026-05-04 04:03
Airport Los Angeles International Airport (KLAX)

Arrival

Time 2026-05-04 04:47
Airport Harry Reid International Airport (KLAS)
Time Latitude Longitude Altitude Speed Heading
2026-05-04 03:30 33.94656 -118.40977 123 ft 0 kts 258°
2026-05-04 03:47 33.94656 -118.40975 123 ft 0 kts 258°
2026-05-04 03:47 33.94658 -118.40962 122 ft 2 kts 258°
2026-05-04 03:47 33.94662 -118.40943 122 ft 2 kts 258°
2026-05-04 03:48 33.94659 -118.40921 121 ft 2 kts 304°
2026-05-04 03:48 33.94645 -118.40907 121 ft 2 kts 340°
2026-05-04 03:48 33.94638 -118.40905 121 ft 0 kts 355°
2026-05-04 03:48 33.94665 -118.40910 121 ft 3 kts 353°
2026-05-04 03:49 33.94674 -118.40911 121 ft 0 kts 352°
2026-05-04 03:51 33.94676 -118.40912 121 ft 1 kts 351°
2026-05-04 03:51 33.94694 -118.40915 121 ft 3 kts 350°
2026-05-04 03:51 33.94732 -118.40918 121 ft 7 kts 13°
2026-05-04 03:52 33.94790 -118.40890 122 ft 10 kts
2026-05-04 03:52 33.94843 -118.40826 123 ft 13 kts 78°
2026-05-04 03:52 33.94857 -118.40698 120 ft 15 kts 83°
2026-05-04 03:52 33.94870 -118.40575 120 ft 12 kts 83°
2026-05-04 03:53 33.94881 -118.40462 119 ft 15 kts 83°
2026-05-04 03:53 33.94894 -118.40316 117 ft 16 kts 84°
2026-05-04 03:53 33.94906 -118.40189 116 ft 12 kts 84°
2026-05-04 03:53 33.94918 -118.40081 115 ft 12 kts 83°
2026-05-04 03:54 33.94928 -118.39988 113 ft 5 kts 83°
2026-05-04 03:54 33.94937 -118.39956 113 ft 1 kts 60°
2026-05-04 03:54 33.94937 -118.39955 113 ft 0 kts 60°
2026-05-04 03:54 33.94938 -118.39954 113 ft 0 kts 60°
2026-05-04 03:55 33.94938 -118.39953 113 ft 0 kts 60°
2026-05-04 03:59 33.94940 -118.39951 113 ft 2 kts 60°
2026-05-04 03:59 33.94995 -118.39919 112 ft 15 kts 356°
2026-05-04 03:59 33.95039 -118.39980 113 ft 2 kts 264°
2026-05-04 03:59 33.95038 -118.39986 113 ft 0 kts 264°
2026-05-04 04:02 33.95036 -118.40005 113 ft 13 kts 264°
2026-05-04 04:02 33.94991 -118.40453 119 ft 89 kts 263°
2026-05-04 04:02 33.94888 -118.41460 123 ft 150 kts 263°
2026-05-04 04:03 33.94743 -118.42908 464 ft 177 kts 263°
2026-05-04 04:03 33.94591 -118.44444 1260 ft 182 kts 263°
2026-05-04 04:03 33.94436 -118.45949 2134 ft 175 kts 263°
2026-05-04 04:03 33.94296 -118.47386 2736 ft 182 kts 263°
2026-05-04 04:04 33.94134 -118.48933 3271 ft 194 kts 262°
2026-05-04 04:04 33.93946 -118.50594 3723 ft 211 kts 262°
2026-05-04 04:04 33.93741 -118.52403 4202 ft 227 kts 262°
2026-05-04 04:04 33.93527 -118.54314 4837 ft 235 kts 262°
2026-05-04 04:05 33.93308 -118.56253 5687 ft 234 kts 262°
2026-05-04 04:05 33.93086 -118.58250 6370 ft 240 kts 262°
2026-05-04 04:05 33.92865 -118.60207 7175 ft 240 kts 262°
2026-05-04 04:05 33.92640 -118.62191 7926 ft 242 kts 261°
2026-05-04 04:06 33.92419 -118.64205 8713 ft 243 kts 262°
2026-05-04 04:06 33.92200 -118.66189 9428 ft 245 kts 259°
2026-05-04 04:06 33.91611 -118.68140 9920 ft 254 kts 232°
2026-05-04 04:06 33.90211 -118.69398 10610 ft 258 kts 201°
2026-05-04 04:07 33.88457 -118.69727 11454 ft 260 kts 181°
2026-05-04 04:07 33.86675 -118.69385 12157 ft 268 kts 166°
2026-05-04 04:07 33.85049 -118.68239 12752 ft 284 kts 139°
2026-05-04 04:07 33.84020 -118.66151 12956 ft 300 kts 108°
2026-05-04 04:08 33.84002 -118.63630 12974 ft 307 kts 77°
2026-05-04 04:08 33.84868 -118.61240 12987 ft 322 kts 61°
2026-05-04 04:08 33.86068 -118.58857 13097 ft 341 kts 59°
2026-05-04 04:08 33.87273 -118.56486 14067 ft 334 kts 59°
2026-05-04 04:09 33.88464 -118.54010 14507 ft 348 kts 61°
2026-05-04 04:09 33.89650 -118.51415 14915 ft 360 kts 62°
2026-05-04 04:09 33.90840 -118.48746 14973 ft 360 kts 62°
2026-05-04 04:09 33.92054 -118.45991 15500 ft 365 kts 63°
2026-05-04 04:10 33.93306 -118.43223 16216 ft 369 kts 59°
2026-05-04 04:10 33.94708 -118.40506 16726 ft 378 kts 54°
2026-05-04 04:10 33.96291 -118.37737 17274 ft 386 kts 52°
2026-05-04 04:10 33.97975 -118.34874 17867 ft 394 kts 53°
2026-05-04 04:11 33.99717 -118.31891 18438 ft 401 kts 53°
2026-05-04 04:11 34.01373 -118.29024 19116 ft 403 kts 54°
2026-05-04 04:11 34.03048 -118.26105 19637 ft 410 kts 53°
2026-05-04 04:11 34.04704 -118.23198 20285 ft 412 kts 54°
2026-05-04 04:12 34.06419 -118.20175 20830 ft 417 kts 54°
2026-05-04 04:12 34.08076 -118.17247 21407 ft 420 kts 54°
2026-05-04 04:12 34.09771 -118.14246 21954 ft 423 kts 54°
2026-05-04 04:12 34.11544 -118.11108 22415 ft 429 kts 54°
2026-05-04 04:13 34.13415 -118.07797 22906 ft 435 kts 53°
2026-05-04 04:13 34.15220 -118.04598 23377 ft 439 kts 53°
2026-05-04 04:13 34.17096 -118.01273 23852 ft 443 kts 54°
2026-05-04 04:13 34.19030 -117.97839 24407 ft 445 kts 53°
2026-05-04 04:14 34.20864 -117.94583 24689 ft 454 kts 54°
2026-05-04 04:14 34.22706 -117.91315 25136 ft 458 kts 54°
2026-05-04 04:14 34.24641 -117.87862 25668 ft 459 kts 54°
2026-05-04 04:14 34.26475 -117.84582 26381 ft 453 kts 53°
2026-05-04 04:15 34.28323 -117.81276 26866 ft 454 kts 54°
2026-05-04 04:15 34.30198 -117.77924 26986 ft 459 kts 53°
2026-05-04 04:15 34.32156 -117.74409 26988 ft 454 kts 54°
2026-05-04 04:15 34.33998 -117.71096 26997 ft 453 kts 52°
2026-05-04 04:16 34.35885 -117.67713 26960 ft 453 kts 53°
2026-05-04 04:16 34.37816 -117.64387 26960 ft 463 kts 52°
2026-05-04 04:16 34.39891 -117.60915 26973 ft 477 kts 50°
2026-05-04 04:16 34.42028 -117.57388 27022 ft 487 kts 51°
2026-05-04 04:17 34.44281 -117.53677 26940 ft 489 kts 51°
2026-05-04 04:17 34.46400 -117.50158 26953 ft 490 kts 50°
2026-05-04 04:17 34.48527 -117.46613 26953 ft 489 kts 51°
2026-05-04 04:17 34.50608 -117.43136 26938 ft 490 kts 50°
2026-05-04 04:18 34.52654 -117.39694 26958 ft 488 kts 50°
2026-05-04 04:18 34.54699 -117.36248 26968 ft 488 kts 51°
2026-05-04 04:18 34.56703 -117.32867 26971 ft 488 kts 53°
2026-05-04 04:18 34.58693 -117.29510 26972 ft 488 kts 52°
2026-05-04 04:19 34.60672 -117.26163 26953 ft 489 kts 52°
2026-05-04 04:19 34.62672 -117.22776 26932 ft 484 kts 52°
2026-05-04 04:19 34.64711 -117.19318 26932 ft 485 kts 51°
2026-05-04 04:19 34.66731 -117.15899 26940 ft 487 kts 51°
2026-05-04 04:20 34.68712 -117.12550 26927 ft 484 kts 51°
2026-05-04 04:20 34.70746 -117.09106 26913 ft 485 kts 53°
2026-05-04 04:20 34.72776 -117.05647 26893 ft 483 kts 52°
2026-05-04 04:20 34.74794 -117.02209 26892 ft 485 kts 53°
2026-05-04 04:21 34.76839 -116.98717 26900 ft 482 kts 53°
2026-05-04 04:21 34.78943 -116.95126 26888 ft 486 kts 52°
2026-05-04 04:21 34.80981 -116.91643 26889 ft 483 kts 51°
2026-05-04 04:21 34.82998 -116.88187 26915 ft 490 kts 52°
2026-05-04 04:22 34.85019 -116.84727 26917 ft 489 kts 52°
2026-05-04 04:22 34.87029 -116.81292 26912 ft 490 kts 52°
2026-05-04 04:22 34.89010 -116.77899 26911 ft 486 kts 52°
2026-05-04 04:22 34.91069 -116.74372 26909 ft 492 kts 52°
2026-05-04 04:23 34.93100 -116.70882 26886 ft 487 kts 51°
2026-05-04 04:23 34.95087 -116.67413 26889 ft 487 kts 53°
2026-05-04 04:23 34.97046 -116.63957 26887 ft 488 kts 53°
2026-05-04 04:23 34.98960 -116.60558 26879 ft 489 kts 52°
2026-05-04 04:24 35.00905 -116.57093 26875 ft 488 kts 53°
2026-05-04 04:24 35.02872 -116.53590 26873 ft 489 kts 53°
2026-05-04 04:24 35.04839 -116.50084 26838 ft 482 kts 54°
2026-05-04 04:24 35.06590 -116.46949 26616 ft 476 kts 52°
2026-05-04 04:25 35.08592 -116.43374 26355 ft 467 kts 51°
2026-05-04 04:25 35.10524 -116.40158 26102 ft 458 kts 47°
2026-05-04 04:25 35.12610 -116.37131 25854 ft 452 kts 44°
2026-05-04 04:25 35.14773 -116.34251 25602 ft 449 kts 42°
2026-05-04 04:26 35.17028 -116.31361 25347 ft 449 kts 42°
2026-05-04 04:26 35.19224 -116.28577 25100 ft 448 kts 42°
2026-05-04 04:26 35.21407 -116.25806 24884 ft 445 kts 42°
2026-05-04 04:26 35.23594 -116.23007 24874 ft 440 kts 44°
2026-05-04 04:27 35.25715 -116.20200 24877 ft 443 kts 44°
2026-05-04 04:27 35.27793 -116.17384 24631 ft 439 kts 44°
2026-05-04 04:27 35.29867 -116.14555 24145 ft 437 kts 44°
2026-05-04 04:27 35.31915 -116.11746 23659 ft 436 kts 45°
2026-05-04 04:28 35.33975 -116.08898 23230 ft 432 kts 45°
2026-05-04 04:28 35.35973 -116.06144 22850 ft 427 kts 44°
2026-05-04 04:28 35.37985 -116.03367 22531 ft 421 kts 46°
2026-05-04 04:28 35.39948 -116.00663 22112 ft 418 kts 44°
2026-05-04 04:29 35.42013 -115.97813 21727 ft 414 kts 46°
2026-05-04 04:29 35.43948 -115.95141 21385 ft 408 kts 46°
2026-05-04 04:29 35.45887 -115.92456 20987 ft 405 kts 46°
2026-05-04 04:29 35.47808 -115.89799 20636 ft 400 kts 46°
2026-05-04 04:30 35.49698 -115.87191 20326 ft 394 kts 46°
2026-05-04 04:30 35.51576 -115.84596 19871 ft 393 kts 46°
2026-05-04 04:30 35.53412 -115.82057 19581 ft 386 kts 47°
2026-05-04 04:30 35.55200 -115.79582 19280 ft 380 kts 47°
2026-05-04 04:31 35.56954 -115.77156 18950 ft 375 kts 47°
2026-05-04 04:31 35.58720 -115.74708 18420 ft 376 kts 48°
2026-05-04 04:31 35.60482 -115.72276 18244 ft 366 kts 48°
2026-05-04 04:31 35.62262 -115.69859 17889 ft 361 kts 47°
2026-05-04 04:32 35.64057 -115.67443 17563 ft 356 kts 47°
2026-05-04 04:32 35.65792 -115.65110 17212 ft 352 kts 47°
2026-05-04 04:32 35.67468 -115.62852 16840 ft 349 kts 47°
2026-05-04 04:32 35.69123 -115.60618 16483 ft 346 kts 48°
2026-05-04 04:33 35.70827 -115.58322 16048 ft 345 kts 48°
2026-05-04 04:33 35.72549 -115.56163 15786 ft 341 kts 43°
2026-05-04 04:33 35.74466 -115.54294 15541 ft 341 kts 34°
2026-05-04 04:33 35.76570 -115.52725 15291 ft 337 kts 30°
2026-05-04 04:34 35.78676 -115.51328 15040 ft 336 kts 28°
2026-05-04 04:34 35.80748 -115.49962 14806 ft 335 kts 29°
2026-05-04 04:34 35.82846 -115.48553 14544 ft 333 kts 30°
2026-05-04 04:34 35.84959 -115.47099 14275 ft 332 kts 30°
2026-05-04 04:35 35.86989 -115.45682 14020 ft 328 kts 31°
2026-05-04 04:35 35.89063 -115.44218 13751 ft 331 kts 32°
2026-05-04 04:35 35.91264 -115.42665 13461 ft 329 kts 32°
2026-05-04 04:35 35.93429 -115.41147 13195 ft 329 kts 32°
2026-05-04 04:36 35.95506 -115.39704 13096 ft 325 kts 31°
2026-05-04 04:36 35.97528 -115.38298 13079 ft 327 kts 32°
2026-05-04 04:36 35.99453 -115.36733 12950 ft 320 kts 41°
2026-05-04 04:36 36.00932 -115.34675 12597 ft 309 kts 65°
2026-05-04 04:37 36.01183 -115.26978 11332 ft 294 kts 99°
2026-05-04 04:37 36.01044 -115.24402 10870 ft 295 kts 98°
2026-05-04 04:38 36.00932 -115.21822 10534 ft 292 kts 97°
2026-05-04 04:38 36.00827 -115.19321 10337 ft 282 kts 98°
2026-05-04 04:38 36.00718 -115.16917 10171 ft 269 kts 98°
2026-05-04 04:38 36.00607 -115.14637 9927 ft 260 kts 98°
2026-05-04 04:39 36.00488 -115.12378 9643 ft 254 kts 98°
2026-05-04 04:39 36.00374 -115.10212 9356 ft 248 kts 99°
2026-05-04 04:39 36.00263 -115.08062 9093 ft 243 kts 99°
2026-05-04 04:39 36.00161 -115.05940 8990 ft 238 kts 99°
2026-05-04 04:40 36.00048 -115.03886 8864 ft 232 kts 99°
2026-05-04 04:40 35.99939 -115.01877 8568 ft 232 kts 98°
2026-05-04 04:40 35.99852 -114.99850 8103 ft 237 kts 97°
2026-05-04 04:40 35.99853 -114.97797 8004 ft 224 kts 95°
2026-05-04 04:41 35.99888 -114.95903 8014 ft 206 kts 96°
2026-05-04 04:41 35.99901 -114.94124 8001 ft 199 kts 94°
2026-05-04 04:41 36.00139 -114.92355 7740 ft 210 kts 70°
2026-05-04 04:41 36.01174 -114.91011 7341 ft 223 kts 31°
2026-05-04 04:42 36.02608 -114.90235 6967 ft 227 kts 15°
2026-05-04 04:42 36.04189 -114.90125 6545 ft 229 kts 347°
2026-05-04 04:42 36.05672 -114.90855 6043 ft 230 kts 323°
2026-05-04 04:42 36.06853 -114.92166 5571 ft 224 kts 299°
2026-05-04 04:43 36.07327 -114.93909 5184 ft 211 kts 269°
2026-05-04 04:43 36.07341 -114.95695 5006 ft 197 kts 265°
2026-05-04 04:43 36.07344 -114.97313 4988 ft 178 kts 265°
2026-05-04 04:43 36.07363 -114.98758 5011 ft 161 kts 265°
2026-05-04 04:44 36.07370 -115.00146 4813 ft 161 kts 265°
2026-05-04 04:44 36.07368 -115.01531 4559 ft 160 kts 266°
2026-05-04 04:44 36.07370 -115.02932 4219 ft 161 kts 266°
2026-05-04 04:44 36.07375 -115.04296 3849 ft 158 kts 266°
2026-05-04 04:45 36.07376 -115.05647 3766 ft 156 kts 266°
2026-05-04 04:45 36.07370 -115.07010 3430 ft 162 kts 267°
2026-05-04 04:45 36.07375 -115.08401 3047 ft 159 kts 266°
2026-05-04 04:47 36.07435 -115.14978 2131 ft 28 kts 299°
2026-05-04 04:47 36.07503 -115.15103 2134 ft 14 kts 316°
2026-05-04 04:47 36.07587 -115.15165 2135 ft 13 kts 334°
2026-05-04 04:47 36.07687 -115.15223 2135 ft 16 kts 335°
2026-05-04 04:48 36.07764 -115.15268 2135 ft 9 kts 334°
2026-05-04 04:49 36.07866 -115.14925 2120 ft 16 kts 95°
2026-05-04 04:49 36.07854 -115.14773 2116 ft 18 kts 95°
2026-05-04 04:49 36.07843 -115.14606 2112 ft 20 kts 94°
2026-05-04 04:49 36.07832 -115.14430 2106 ft 18 kts 95°
2026-05-04 04:50 36.07826 -115.14306 2101 ft 9 kts 91°
2026-05-04 04:50 36.07827 -115.14209 2100 ft 14 kts 89°
2026-05-04 04:50 36.07827 -115.14083 2096 ft 14 kts 90°
2026-05-04 04:50 36.07870 -115.13985 2091 ft 10 kts 12°
2026-05-04 04:51 36.07915 -115.14011 2091 ft 5 kts 315°
2026-05-04 04:51 36.07936 -115.14022 2091 ft 4 kts
2026-05-04 04:51 36.07969 -115.14011 2090 ft 3 kts 23°
2026-05-04 04:51 36.07973 -115.14008 2090 ft 0 kts 25°